When you browse on this site, cookies collect data to enhance your experience and personalize the content and advertising you see.
Visit our Privacy Policy to learn more. By continuing to use the site, you agree to this use of cookies and data.
  • In United Kingdom
  • List of Countries
  • For 7 days
  • Water Temperature
  • Weather Map
  • Weather Widgets
  • user-avatar
    Login

    Hourly Weather Minsk

    Today, 18 August, Sunday

    Time Temperature Precipitation Wind Pressure Humidity
    00:00 +13°C° 0 mm 1 mps 741 mmHg 79%
    01:00 +13°C° 0 mm 1 mps 741 mmHg 79%
    02:00 +13°C° 0 mm 1 mps 741 mmHg 80%
    03:00 +13°C° 0 mm 1 mps 741 mmHg 80%
    04:00 +12°C° 0 mm 1 mps 741 mmHg 80%
    05:00 +12°C° 0 mm 1 mps 740 mmHg 81%
    06:00 +14°C° 0 mm 1 mps 741 mmHg 77%
    07:00 +16°C° 0 mm 1 mps 741 mmHg 73%
    08:00 +18°C° 0 mm 1 mps 741 mmHg 68%
    09:00 +20°C° 0 mm 1 mps 741 mmHg 63%
    10:00 +21°C° 0 mm 1 mps 741 mmHg 57%
    11:00 +22°C° 0 mm 1 mps 741 mmHg 52%
    12:00 +23°C° 0 mm 2 mps 741 mmHg 51%
    13:00 +24°C° 0 mm 2 mps 741 mmHg 51%
    14:00 +24°C° 0 mm 2 mps 741 mmHg 51%
    15:00 +24°C° 0 mm 2 mps 741 mmHg 53%
    16:00 +24°C° 0 mm 2 mps 741 mmHg 56%
    17:00 +24°C° 0 mm 1 mps 741 mmHg 59%
    18:00 +21°C° 0 mm 2 mps 741 mmHg 67%
    19:00 +20°C° 0 mm 2 mps 741 mmHg 74%
    20:00 +18°C° 0 mm 2 mps 741 mmHg 82%
    21:00 +17°C° 0 mm 2 mps 741 mmHg 84%
    22:00 +17°C° 0 mm 2 mps 741 mmHg 86%
    23:00 +16°C° 0 mm 2 mps 741 mmHg 88%

    Tomorrow, 19 August, Monday

    Time Temperature Precipitation Wind Pressure Humidity
    00:00 +16°C° 0 mm 2 mps 741 mmHg 90%
    01:00 +16°C° 0 mm 3 mps 741 mmHg 91%
    02:00 +16°C° 0 mm 3 mps 741 mmHg 92%
    03:00 +14°C° 0 mm 3 mps 741 mmHg 92%
    04:00 +14°C° 0 mm 3 mps 741 mmHg 92%
    05:00 +14°C° 0 mm 3 mps 741 mmHg 91%
    06:00 +15°C° 0 mm 4 mps 741 mmHg 88%
    07:00 +18°C° 0 mm 4 mps 741 mmHg 84%
    08:00 +19°C° 0 mm 4 mps 742 mmHg 80%
    09:00 +21°C° 0 mm 5 mps 742 mmHg 77%
    10:00 +23°C° 0 mm 5 mps 742 mmHg 74%
    11:00 +25°C° 0 mm 5 mps 742 mmHg 71%
    12:00 +26°C° 0.2 mm 5 mps 742 mmHg 70%
    13:00 +27°C° 0.2 mm 5 mps 742 mmHg 68%
    14:00 +27°C° 0.2 mm 5 mps 742 mmHg 67%
    15:00 +27°C° 0 mm 5 mps 743 mmHg 68%
    16:00 +28°C° 0 mm 4 mps 743 mmHg 69%
    17:00 +28°C° 0 mm 3 mps 743 mmHg 70%
    18:00 +26°C° 0.2 mm 2 mps 743 mmHg 75%
    19:00 +24°C° 0.2 mm 2 mps 743 mmHg 81%
    20:00 +23°C° 0.2 mm 1 mps 743 mmHg 86%
    21:00 +22°C° 2.2 mm 1 mps 743 mmHg 89%
    22:00 +21°C° 2.2 mm 2 mps 744 mmHg 91%
    23:00 +20°C° 2.2 mm 2 mps 744 mmHg 93%

    Day after tomorrow, 20 August, Tuesday

    Time Temperature Precipitation Wind Pressure Humidity
    00:00 +20°C° 0.7 mm 2 mps 744 mmHg 94%
    01:00 +19°C° 0.7 mm 2 mps 744 mmHg 95%
    02:00 +19°C° 0.7 mm 2 mps 744 mmHg 96%
    03:00 +20°C° 0 mm 1 mps 745 mmHg 96%
    04:00 +19°C° 0 mm 1 mps 745 mmHg 96%
    05:00 +19°C° 0 mm 1 mps 745 mmHg 96%
    06:00 +20°C° 0 mm 1 mps 745 mmHg 93%
    07:00 +20°C° 0 mm 2 mps 745 mmHg 91%
    08:00 +20°C° 0 mm 2 mps 746 mmHg 88%
    09:00 +21°C° 0 mm 2 mps 746 mmHg 83%
    10:00 +23°C° 0 mm 1 mps 746 mmHg 78%
    11:00 +25°C° 0 mm 1 mps 746 mmHg 73%
    12:00 +25°C° 0 mm 1 mps 746 mmHg 70%
    13:00 +26°C° 0 mm 1 mps 746 mmHg 68%
    14:00 +26°C° 0 mm 1 mps 746 mmHg 65%
    15:00 +26°C° 0 mm 1 mps 747 mmHg 66%
    16:00 +26°C° 0 mm 2 mps 747 mmHg 67%
    17:00 +26°C° 0 mm 2 mps 747 mmHg 67%
    18:00 +24°C° 0.1 mm 1 mps 747 mmHg 74%
    19:00 +23°C° 0.1 mm 1 mps 747 mmHg 80%
    20:00 +21°C° 0.1 mm 1 mps 747 mmHg 86%
    21:00 +20°C° 0 mm 1 mps 747 mmHg 87%
    22:00 +20°C° 0 mm 1 mps 747 mmHg 88%
    23:00 +17°C° 0 mm 0 mps 748 mmHg 89%

    21 August, Wednesday

    Time Temperature Precipitation Wind Pressure Humidity
    00:00 +19°C° 0 mm 1 mps 747 mmHg 90%
    01:00 +19°C° 0 mm 1 mps 747 mmHg 91%
    02:00 +19°C° 0 mm 1 mps 747 mmHg 91%
    03:00 +19°C° 0 mm 1 mps 747 mmHg 92%
    04:00 +18°C° 0 mm 1 mps 747 mmHg 92%
    05:00 +18°C° 0 mm 1 mps 747 mmHg 93%
    06:00 +19°C° 0 mm 1 mps 747 mmHg 91%
    07:00 +19°C° 0 mm 2 mps 747 mmHg 89%
    08:00 +20°C° 0 mm 2 mps 747 mmHg 87%
    09:00 +20°C° 0.1 mm 2 mps 747 mmHg 88%
    10:00 +21°C° 0.1 mm 2 mps 747 mmHg 89%
    11:00 +22°C° 0.1 mm 1 mps 747 mmHg 89%
    12:00 +21°C° 0.2 mm 2 mps 746 mmHg 90%
    13:00 +21°C° 0.2 mm 2 mps 746 mmHg 90%
    14:00 +21°C° 0.2 mm 2 mps 746 mmHg 90%
    15:00 +21°C° 0.5 mm 3 mps 745 mmHg 90%
    16:00 +20°C° 0.5 mm 4 mps 745 mmHg 90%
    17:00 +19°C° 0.5 mm 5 mps 745 mmHg 91%
    18:00 +17°C° 0.6 mm 6 mps 745 mmHg 92%
    19:00 +16°C° 0.6 mm 6 mps 745 mmHg 93%
    20:00 +15°C° 0.6 mm 7 mps 745 mmHg 94%
    21:00 +14°C° 0.9 mm 6 mps 746 mmHg 94%
    22:00 +14°C° 0.9 mm 6 mps 746 mmHg 94%
    23:00 +14°C° 0.9 mm 6 mps 746 mmHg 94%

    22 August, Thursday

    Time Temperature Precipitation Wind Pressure Humidity
    00:00 +14°C° 0 mm 5 mps 747 mmHg 93%
    01:00 +14°C° 0 mm 5 mps 747 mmHg 92%
    02:00 +14°C° 0 mm 5 mps 747 mmHg 92%
    03:00 +13°C° 0 mm 5 mps 747 mmHg 93%
    04:00 +12°C° 0 mm 4 mps 748 mmHg 94%
    05:00 +12°C° 0 mm 4 mps 748 mmHg 95%
    06:00 +13°C° 0 mm 4 mps 748 mmHg 92%
    07:00 +14°C° 0 mm 4 mps 749 mmHg 89%
    08:00 +15°C° 0 mm 4 mps 749 mmHg 86%
    09:00 +18°C° 0 mm 4 mps 749 mmHg 80%
    10:00 +19°C° 0 mm 4 mps 750 mmHg 74%
    11:00 +20°C° 0 mm 3 mps 750 mmHg 68%
    12:00 +21°C° 0 mm 3 mps 750 mmHg 67%
    13:00 +21°C° 0 mm 3 mps 749 mmHg 66%
    14:00 +21°C° 0 mm 3 mps 749 mmHg 65%
    15:00 +21°C° 0 mm 3 mps 749 mmHg 66%
    16:00 +21°C° 0 mm 3 mps 749 mmHg 68%
    17:00 +20°C° 0 mm 3 mps 749 mmHg 69%
    18:00 +19°C° 0 mm 3 mps 749 mmHg 74%
    19:00 +17°C° 0 mm 2 mps 749 mmHg 78%
    20:00 +15°C° 0 mm 2 mps 749 mmHg 83%
    21:00 +15°C° 0 mm 2 mps 750 mmHg 84%
    22:00 +14°C° 0 mm 2 mps 750 mmHg 85%
    23:00 +13°C° 0 mm 1 mps 750 mmHg 85%

    23 August, Friday

    Time Temperature Precipitation Wind Pressure Humidity
    00:00 +13°C° 0 mm 1 mps 750 mmHg 86%
    01:00 +13°C° 0 mm 1 mps 750 mmHg 87%
    02:00 +12°C° 0 mm 1 mps 750 mmHg 88%
    03:00 +12°C° 0 mm 1 mps 750 mmHg 88%
    04:00 +12°C° 0 mm 2 mps 750 mmHg 88%
    05:00 +12°C° 0 mm 2 mps 750 mmHg 89%
    06:00 +13°C° 0 mm 2 mps 750 mmHg 85%
    07:00 +14°C° 0 mm 2 mps 750 mmHg 81%
    08:00 +16°C° 0 mm 2 mps 750 mmHg 77%
    09:00 +17°C° 0 mm 2 mps 750 mmHg 71%
    10:00 +18°C° 0 mm 2 mps 750 mmHg 66%
    11:00 +19°C° 0 mm 3 mps 750 mmHg 60%
    12:00 +20°C° 0 mm 3 mps 750 mmHg 58%
    13:00 +20°C° 0 mm 3 mps 750 mmHg 56%
    14:00 +20°C° 0 mm 4 mps 750 mmHg 54%
    15:00 +20°C° 0 mm 3 mps 750 mmHg 57%
    16:00 +20°C° 0 mm 3 mps 750 mmHg 60%
    17:00 +20°C° 0 mm 3 mps 750 mmHg 63%
    18:00 +18°C° 0 mm 2 mps 750 mmHg 69%
    19:00 +17°C° 0 mm 2 mps 750 mmHg 74%
    20:00 +15°C° 0 mm 2 mps 750 mmHg 80%
    21:00 +15°C° 0 mm 2 mps 750 mmHg 82%
    22:00 +14°C° 0 mm 2 mps 750 mmHg 83%
    23:00 +14°C° 0 mm 2 mps 750 mmHg 85%
    Show more